Home   Weather   Gaza   Past weeks
Flag for Palestinian Territories

Past Weather in Gaza, Gaza Strip, Palestinian Territories — Yesterday and Last 2 Weeks

Now
84 °F

Passing clouds.


Feels Like: 92 °F
Forecast: 89 / 75 °F
Wind: 13 mph from Northwest

Location: Ben Gurion International Airport

Current Time: Jul 17, 2019 at 7:50:41 pm

Latest Report: Jul 17, 2019 at 7:20 pm


Visibility: N/A

Pressure: 29.65 "Hg

Humidity: 74%

Dew Point: 75 °F

Location of GazaLocation

Past Weather in Gaza — Graph

°F

Gaza Temperature Yesterday

Maximum temperature yesterday: 90 °F (at 1:50 pm)
Minimum temperature yesterday: 77 °F (at 3:20 am)
Average temperature yesterday: 83 °F

High & Low Weather Summary for the Past Weeks

 TemperatureHumidityPressure
High106 °F (Jul 17, 10:50 am)89% (Jul 11, 3:50 am)29.86 "Hg (Jul 11, 3:50 am)
Low73 °F (Jul 4, 5:20 am)16% (Jul 17, 10:20 am)29.59 "Hg (Jul 17, 9:20 am)
Average83 °F64%29.74 "Hg
* Reported Jul 2 6:20 pm — Jul 17 6:50 pm, Gaza. Weather by CustomWeather, © 2019

Note: Actual official high and low records may vary slightly from our data, if they occured in-between our weather recording intervals... More about our weather records

Advertising

Gaza Weather History for the Previous 24 Hours

Scroll right to see more
 ConditionsComfort  
Time TempWeatherWind HumidityBarometerVisibility
6:50 pm
Wed, Jul 17
84 °FScattered clouds.12 mph79%29.65 "HgN/A
6:20 pm86 °FPassing clouds.12 mph75%29.65 "Hg6 mi
5:50 pm88 °FPassing clouds.9 mph70%29.65 "HgN/A
5:20 pm90 °FPassing clouds.9 mph63%29.65 "HgN/A
4:50 pm91 °FSunny.10 mph52%29.65 "Hg10 mi
4:20 pm91 °FPassing clouds.10 mph52%29.65 "HgN/A
3:50 pm93 °FSunny.16 mph49%29.65 "Hg10 mi
3:20 pm93 °FSunny.16 mph49%29.65 "Hg10 mi
2:50 pm95 °FClear.17 mph47%29.62 "Hg6 mi
2:20 pm95 °FPassing clouds.20 mph47%29.62 "Hg6 mi
1:50 pm97 °FClear.23 mph39%29.62 "Hg6 mi
1:20 pm99 °FClear.25 mph33%29.62 "Hg5 mi
12:50 pm100 °FClear.29 mph27%29.62 "Hg6 mi
12:20 pm102 °FClear.28 mph20%29.62 "Hg5 mi
11:50 am106 °FSunny.26 mph17%29.59 "Hg10 mi
11:20 am106 °FSunny.22 mph17%29.59 "Hg10 mi
10:50 am106 °FSunny.20 mph17%29.59 "Hg10 mi
10:20 am104 °FSunny.15 mph16%29.59 "Hg10 mi
9:50 am102 °FSunny.14 mph17%29.59 "Hg10 mi
9:20 am100 °FSunny.12 mph20%29.59 "Hg10 mi
8:50 am97 °FSunny.7 mph25%29.62 "Hg10 mi
8:20 am93 °FSunny.6 mph28%29.62 "Hg10 mi
7:50 am90 °FSunny.1 mph31%29.62 "Hg10 mi
7:20 am84 °FSunny.2 mph40%29.62 "Hg10 mi
6:50 am82 °FSunny.2 mph42%29.62 "Hg10 mi
6:20 am84 °FSunny.2 mph37%29.62 "Hg10 mi
5:50 am84 °FSunny.2 mph37%29.62 "Hg10 mi
5:20 am82 °FClear.1 mph42%29.62 "Hg10 mi
4:50 am81 °FClear.1 mph48%29.62 "Hg10 mi
4:20 am79 °FClear.3 mph58%29.62 "Hg10 mi
3:50 am79 °FClear.7 mph61%29.62 "Hg10 mi
3:20 am81 °FClear.3 mph54%29.65 "Hg10 mi
2:50 am81 °FClear.2 mph62%29.65 "Hg10 mi
2:20 am79 °FClear.3 mph70%29.65 "Hg10 mi
1:50 am79 °FClear.6 mph70%29.68 "Hg10 mi
1:20 am79 °FClear.5 mph70%29.68 "Hg10 mi
12:50 am79 °FClear.3 mph70%29.71 "Hg10 mi
12:20 am81 °FClear.5 mph70%29.71 "Hg10 mi
11:50 pm
Tue, Jul 16
81 °FClear.6 mph66%29.74 "Hg10 mi
11:20 pm81 °FClear.8 mph70%29.74 "Hg10 mi
10:50 pm81 °FClear.5 mph70%29.74 "Hg10 mi
10:20 pm82 °FClear.8 mph62%29.74 "Hg10 mi
9:50 pm82 °FClear.7 mph66%29.74 "Hg10 mi
9:20 pm82 °FClear.7 mph66%29.74 "Hg10 mi
8:50 pm84 °FClear.6 mph62%29.74 "Hg10 mi
8:20 pm84 °FClear.8 mph62%29.74 "Hg10 mi
7:50 pm84 °FClear.8 mph62%29.71 "Hg10 mi
7:20 pm86 °FSunny.8 mph59%29.74 "Hg10 mi
Weather by CustomWeather, © 2019

See weather overview